Regional Weather Roundup
Issued by NWS

Home | Current Version | Previous Version | Text Only | Print | Product List | Glossary Off
Versions: 1 2 3 4 5 6 7 8 9 10 11 12 13 14 15 16 17 18 19 20 21 22 23 24 25 26 27 28 29 30 31 32 33 34 35 36 37 38 39 40 41 42 43 44 45 46 47 48 49 50

469
ASUS43 KLSX 051557
RWRMO

WEATHER SUMMARY FOR MISSOURI
NATIONAL WEATHER SERVICE SPRINGFIELD MO
1000 AM CST MON DEC 05 2016

NOTE: "FAIR" INDICATES FEW OR NO CLOUDS BELOW 12,000 FEET WITH NO
       SIGNIFICANT WEATHER AND/OR OBSTRUCTIONS TO VISIBILITY.
       CURRENT SKY AND/OR WEATHER CONDITIONS ARE NOT AVAILABLE FOR
       CHILLICOTHE AND FARMINGTON.

MOZ001>031-035>038-043-044-053-054-051700-
...NORTHERN AND WESTERN MISSOURI...

CITY           SKY/WX    TMP DP  RH WIND       PRES   REMARKS
KANSAS CTY INT MOSUNNY   43  37  79 S14       29.87F
LEE`S SUMMIT   CLOUDY    37  37 100 S10       29.91F FOG     WCI  30
ST JOSEPH      SUNNY     41  37  86 S10       29.86F
CHILLICOTHE      N/A     34  34 100 SE7       29.93F WCI  28

$$
MOZ066>068-077>081-088>096-101>105-051700-
...SOUTHWEST MISSOURI...

CITY           SKY/WX    TMP DP  RH WIND       PRES   REMARKS
SPRINGFIELD    PTSUNNY   37  36  96 SE17      29.93S WCI  27
JOPLIN         SUNNY     43  38  82 SE14      29.93S
BRANSON        FOG       36  36 100 SE12      29.97R VSB 1   WCI  27

$$
MOZ032>034-039>042-045>050-055>058-069>072-051700-
...CENTRAL MISSOURI...

CITY           SKY/WX    TMP DP  RH WIND       PRES   REMARKS
COLUMBIA       NOT AVBL
JEFFERSON CITY CLOUDY    32  32 100 SE8       30.01S WCI  25
ROLLA          CLOUDY    35  35 100 SE10      29.97F FOG     WCI  27
SEDALIA        SUNNY     40  37  89 SE9       29.97R
WARRENSBURG    SUNNY     36  36 100 S5        29.94F
OSAGE BEACH    CLOUDY    37  37 100 SE7       29.98F

$$
MOZ051-052-059>065-051700-
...EAST CENTRAL MISSOURI...

CITY           SKY/WX    TMP DP  RH WIND       PRES   REMARKS
ST LOUIS INTL  NOT AVBL

$$
MOZ072>076-082>087-097>100-106>115-051700-
...SOUTH CENTRAL AND SOUTHEAST MISSOURI...

CITY           SKY/WX    TMP DP  RH WIND       PRES   REMARKS
CAPE GIRARDEAU CLOUDY    40  35  83 E13       30.05F
FARMINGTON     CLOUDY    39  37  93 E6        30.02F
POPLAR BLUFF   CLOUDY    41  37  86 E8        30.04F
WEST PLAINS    MOSUNNY   39  36  89 SE8       30.01R

$$



USA.gov is the U.S. government's official web portal to all federal, state and local government web resources and services.